User: anonymous   Login
Location: Homewood
(41.1836°S, 175.9581°E)
Time: 11:42:16
(UTC+00:00)
Language:

Cosmos 2369 Rocket - Orbit

View from above orbital plane
View from above orbital plane
View from above satellite
View from above satellite

Ground track
Ground track

The orbit data is extracted from the following two-line orbital elements,

1 26070U 00006B   24167.93280013 -.00000135  00000-0 -44512-4 0  9998
2 26070  71.0032 346.0465 0014624  59.1435 301.1125 14.15643436259143
Epoch (UTC): 15 June 2024 22:23:13
Eccentricity: 0.0014624
inclination: 71.0032°
perigee height: 829 km
apogee height: 850 km
right ascension of ascending node: 346.0465°
argument of perigee: 59.1435°
revolutions per day: 14.15643436
mean anomaly at epoch: 301.1125°
orbit number at epoch: 25914

The dashed part of the orbit path shows where the satellite is in the earth's shadow,  

DLR